Location: Peebles
(55.6412°N, 3.1714°W)
Time: 21:39:50
(UTC+00:00)

FENGYUN 1C DEB - Pass Details

Date: 13 February 2023
Orbit: 707 x 862 km, 98.5° (Epoch: 07 November)

Event Time Altitude Azimuth Distance (km) Brightness Sun altitude
Rises 20:46:38 0° 204° (SSW) 3,403 ? -30.2°
Reaches altitude 10° 20:49:29 10° 218° (SW) 2,474 ? -30.6°
Maximum altitude 20:53:50 24° 271° (W) 1,708 ? -31.2°
Drops below altitude 10° 20:58:11 10° 323° (NW) 2,464 ? -31.7°
Sets 21:01:02 0° 338° (NNW) 3,386 ? -32.1°
